Location: Vlissingen
(51.4500°N, 3.5830°E)
Time: 15:35:07
(UTC+02:00)

Envisat - Visible Passes

Search period start: 23 May 2024 00:00
Search period end: 02 June 2024 00:00
Orbit: 762 x 764 km, 98.3° (Epoch: 22 May)

Date Brightness Start Highest point End Pass type
(mag) Time Alt. Az. Time Alt. Az. Time Alt. Az.
23 May 5.6 03:35:28 10° ENE 03:37:35 12° E 03:39:41 10° ESE visible
24 May 4.3 04:35:10 10° NNE 04:39:55 38° E 04:44:38 10° SSE visible
25 May 5.3 03:58:31 10° NE 04:02:13 20° E 04:05:52 10° SE visible
27 May 4.7 04:22:14 10° NNE 04:26:44 30° E 04:31:11 10° SSE visible
28 May 5.5 03:45:55 10° NE 03:48:55 16° E 03:51:56 10° ESE visible
29 May 3.9 04:46:14 10° NNE 04:51:09 47° E 04:56:02 10° S visible
30 May 5.0 04:09:22 10° NE 04:13:30 24° E 04:17:36 10° SE visible
31 May 5.6 03:33:39 10° ENE 03:35:37 12° E 03:37:36 10° ESE visible
01 Jun 4.3 04:33:14 10° NNE 04:37:58 37° E 04:42:39 10° SSE visible
